• Em Portugal
  • Lista de países
  • Para 7 dias
  • Temperatura da água
  • Mapas de satélite
  • Mapa do tempo
  • Widgets de tempo
  • user-avatar
    Iniciar Sessão

    Previsão horária em Fedoseevka

    Hoje, 21 Setembro, Sexta-feira

    Tempo Temperatura Precipitação Vento Pressão Humidade
    00:00 +16°C° 0 mm 1 m/s 747 mmHg 90%
    01:00 +16°C° 0 mm 1 m/s 747 mmHg 91%
    02:00 +15°C° 0 mm 1 m/s 747 mmHg 91%
    03:00 +15°C° 0 mm 1 m/s 747 mmHg 92%
    04:00 +15°C° 0 mm 1 m/s 747 mmHg 92%
    05:00 +14°C° 0 mm 1 m/s 748 mmHg 92%
    06:00 +16°C° 0 mm 1 m/s 748 mmHg 87%
    07:00 +18°C° 0 mm 1 m/s 748 mmHg 82%
    08:00 +20°C° 0 mm 1 m/s 748 mmHg 77%
    09:00 +21°C° 0 mm 1 m/s 748 mmHg 70%
    10:00 +23°C° 0 mm 1 m/s 749 mmHg 63%
    11:00 +24°C° 0 mm 1 m/s 749 mmHg 56%
    12:00 +25°C° 0 mm 1 m/s 748 mmHg 54%
    13:00 +26°C° 0 mm 1 m/s 748 mmHg 51%
    14:00 +26°C° 0 mm 1 m/s 748 mmHg 49%
    15:00 +25°C° 0 mm 1 m/s 748 mmHg 54%
    16:00 +24°C° 0 mm 1 m/s 748 mmHg 59%
    17:00 +21°C° 0 mm 0 m/s 748 mmHg 64%
    18:00 +22°C° 0 mm 1 m/s 748 mmHg 67%
    19:00 +21°C° 0 mm 1 m/s 748 mmHg 70%
    20:00 +19°C° 0 mm 2 m/s 748 mmHg 73%
    21:00 +18°C° 0 mm 2 m/s 748 mmHg 75%
    22:00 +18°C° 0 mm 2 m/s 748 mmHg 77%
    23:00 +18°C° 0 mm 2 m/s 748 mmHg 79%

    Amanhã, 22 Setembro, Sábado

    Tempo Temperatura Precipitação Vento Pressão Humidade
    00:00 +17°C° 0 mm 2 m/s 748 mmHg 80%
    01:00 +17°C° 0 mm 2 m/s 748 mmHg 81%
    02:00 +17°C° 0 mm 2 m/s 748 mmHg 83%
    03:00 +17°C° 0 mm 2 m/s 748 mmHg 83%
    04:00 +17°C° 0 mm 2 m/s 747 mmHg 82%
    05:00 +16°C° 0 mm 3 m/s 747 mmHg 82%
    06:00 +18°C° 0 mm 3 m/s 747 mmHg 77%
    07:00 +19°C° 0 mm 4 m/s 747 mmHg 72%
    08:00 +20°C° 0 mm 4 m/s 747 mmHg 67%
    09:00 +22°C° 0 mm 4 m/s 747 mmHg 62%
    10:00 +23°C° 0 mm 5 m/s 746 mmHg 57%
    11:00 +26°C° 0 mm 5 m/s 746 mmHg 52%
    12:00 +26°C° 0 mm 6 m/s 746 mmHg 51%
    13:00 +26°C° 0 mm 6 m/s 745 mmHg 49%
    14:00 +27°C° 0 mm 6 m/s 745 mmHg 47%
    15:00 +26°C° 0 mm 5 m/s 744 mmHg 52%
    16:00 +25°C° 0 mm 4 m/s 744 mmHg 57%
    17:00 +22°C° 0 mm 4 m/s 743 mmHg 63%
    18:00 +22°C° 0 mm 4 m/s 743 mmHg 61%
    19:00 +22°C° 0 mm 5 m/s 743 mmHg 59%
    20:00 +21°C° 0 mm 5 m/s 742 mmHg 57%
    21:00 +21°C° 0 mm 5 m/s 742 mmHg 56%
    22:00 +20°C° 0 mm 5 m/s 742 mmHg 56%
    23:00 +19°C° 0 mm 5 m/s 741 mmHg 56%

    Depois de amanhã, 23 Setembro, Domingo

    Tempo Temperatura Precipitação Vento Pressão Humidade
    00:00 +19°C° 0 mm 5 m/s 741 mmHg 58%
    01:00 +18°C° 0 mm 4 m/s 741 mmHg 61%
    02:00 +17°C° 0 mm 4 m/s 740 mmHg 64%
    03:00 +17°C° 0.1 mm 4 m/s 740 mmHg 67%
    04:00 +15°C° 0.1 mm 4 m/s 740 mmHg 70%
    05:00 +15°C° 0.1 mm 4 m/s 739 mmHg 73%
    06:00 +14°C° 0.7 mm 4 m/s 739 mmHg 77%
    07:00 +13°C° 0.7 mm 4 m/s 739 mmHg 82%
    08:00 +12°C° 0.7 mm 4 m/s 739 mmHg 86%
    09:00 +10°C° 1.4 mm 5 m/s 739 mmHg 87%
    10:00 +9°C° 1.4 mm 6 m/s 739 mmHg 88%
    11:00 +8°C° 1.4 mm 7 m/s 739 mmHg 89%
    12:00 +8°C° 0.8 mm 6 m/s 740 mmHg 87%
    13:00 +9°C° 0.8 mm 5 m/s 740 mmHg 86%
    14:00 +9°C° 0.8 mm 5 m/s 741 mmHg 84%
    15:00 +10°C° 0.1 mm 4 m/s 741 mmHg 84%
    16:00 +11°C° 0.1 mm 4 m/s 741 mmHg 84%
    17:00 +11°C° 0.1 mm 4 m/s 741 mmHg 84%
    18:00 +10°C° 0 mm 4 m/s 741 mmHg 86%
    19:00 +10°C° 0 mm 4 m/s 741 mmHg 89%
    20:00 +9°C° 0 mm 3 m/s 742 mmHg 91%
    21:00 +9°C° 0 mm 3 m/s 742 mmHg 91%
    22:00 +8°C° 0 mm 3 m/s 742 mmHg 92%
    23:00 +8°C° 0 mm 3 m/s 742 mmHg 92%

    24 Setembro, Segunda-feira

    Tempo Temperatura Precipitação Vento Pressão Humidade
    00:00 +8°C° 0 mm 3 m/s 742 mmHg 93%
    01:00 +7°C° 0 mm 3 m/s 742 mmHg 94%
    02:00 +7°C° 0 mm 3 m/s 742 mmHg 95%
    03:00 +7°C° 0 mm 3 m/s 742 mmHg 95%
    04:00 +5°C° 0 mm 3 m/s 743 mmHg 96%
    05:00 +5°C° 0 mm 3 m/s 743 mmHg 96%
    06:00 +7°C° 0 mm 3 m/s 743 mmHg 93%
    07:00 +8°C° 0 mm 3 m/s 743 mmHg 89%
    08:00 +9°C° 0 mm 3 m/s 743 mmHg 86%
    09:00 +10°C° 0 mm 4 m/s 743 mmHg 79%
    10:00 +12°C° 0 mm 4 m/s 742 mmHg 72%
    11:00 +13°C° 0 mm 4 m/s 742 mmHg 65%
    12:00 +14°C° 0 mm 4 m/s 742 mmHg 64%
    13:00 +14°C° 0 mm 4 m/s 742 mmHg 62%
    14:00 +14°C° 0 mm 4 m/s 741 mmHg 60%
    15:00 +13°C° 0 mm 4 m/s 741 mmHg 63%
    16:00 +13°C° 0 mm 4 m/s 740 mmHg 66%
    17:00 +12°C° 0 mm 4 m/s 739 mmHg 69%
    18:00 +12°C° 0.3 mm 5 m/s 738 mmHg 71%
    19:00 +10°C° 0.3 mm 6 m/s 738 mmHg 73%
    20:00 +10°C° 0.3 mm 7 m/s 737 mmHg 75%
    21:00 +10°C° 2.3 mm 8 m/s 735 mmHg 77%
    22:00 +10°C° 2.3 mm 9 m/s 734 mmHg 80%
    23:00 +8°C° 2.3 mm 10 m/s 733 mmHg 83%

    25 Setembro, Terça-feira

    Tempo Temperatura Precipitação Vento Pressão Humidade
    00:00 +9°C° 1.1 mm 10 m/s 732 mmHg 85%
    01:00 +9°C° 1.1 mm 10 m/s 732 mmHg 86%
    02:00 +11°C° 1.1 mm 10 m/s 731 mmHg 87%
    03:00 +10°C° 0.2 mm 9 m/s 730 mmHg 86%
    04:00 +9°C° 0.2 mm 8 m/s 730 mmHg 85%
    05:00 +8°C° 0.2 mm 7 m/s 730 mmHg 84%
    06:00 +8°C° 0.1 mm 7 m/s 729 mmHg 83%
    07:00 +7°C° 0.1 mm 8 m/s 729 mmHg 83%
    08:00 +7°C° 0.1 mm 8 m/s 729 mmHg 82%
    09:00 +7°C° 0.2 mm 8 m/s 729 mmHg 82%
    10:00 +7°C° 0.2 mm 8 m/s 728 mmHg 81%
    11:00 +7°C° 0.2 mm 8 m/s 728 mmHg 81%
    12:00 +7°C° 0.2 mm 8 m/s 728 mmHg 80%
    13:00 +7°C° 0.2 mm 8 m/s 728 mmHg 80%
    14:00 +7°C° 0.2 mm 8 m/s 727 mmHg 80%
    15:00 +8°C° 0.1 mm 7 m/s 727 mmHg 82%
    16:00 +8°C° 0.1 mm 6 m/s 727 mmHg 84%
    17:00 +7°C° 0.1 mm 5 m/s 727 mmHg 86%
    18:00 +7°C° 0.5 mm 5 m/s 728 mmHg 88%
    19:00 +7°C° 0.5 mm 5 m/s 728 mmHg 90%
    20:00 +7°C° 0.5 mm 5 m/s 729 mmHg 91%
    21:00 +7°C° 0.7 mm 6 m/s 729 mmHg 90%
    22:00 +5°C° 0.7 mm 6 m/s 730 mmHg 90%
    23:00 +5°C° 0.7 mm 7 m/s 730 mmHg 89%

    26 Setembro, Quarta-feira

    Tempo Temperatura Precipitação Vento Pressão Humidade
    00:00 +5°C° 0.4 mm 7 m/s 731 mmHg 88%
    01:00 +5°C° 0.4 mm 8 m/s 732 mmHg 88%
    02:00 +4°C° 0.4 mm 8 m/s 733 mmHg 87%
    03:00 +4°C° 0.2 mm 8 m/s 733 mmHg 86%
    04:00 +4°C° 0.2 mm 8 m/s 734 mmHg 86%
    05:00 +2°C° 0.2 mm 8 m/s 735 mmHg 86%
    06:00 +2°C° 0.1 mm 8 m/s 736 mmHg 84%
    07:00 +3°C° 0.1 mm 7 m/s 737 mmHg 83%
    08:00 +3°C° 0.1 mm 7 m/s 737 mmHg 82%
    09:00 +4°C° 0.1 mm 7 m/s 738 mmHg 80%
    10:00 +4°C° 0.1 mm 7 m/s 739 mmHg 78%
    11:00 +4°C° 0.1 mm 7 m/s 740 mmHg 76%
    12:00 +4°C° 0.1 mm 6 m/s 740 mmHg 76%
    13:00 +5°C° 0.1 mm 6 m/s 741 mmHg 75%
    14:00 +5°C° 0.1 mm 6 m/s 742 mmHg 75%
    15:00 +6°C° 0.1 mm 5 m/s 742 mmHg 76%
    16:00 +5°C° 0.1 mm 5 m/s 743 mmHg 78%
    17:00 +5°C° 0.1 mm 4 m/s 744 mmHg 79%
    18:00 +5°C° 0 mm 4 m/s 744 mmHg 81%
    19:00 +4°C° 0 mm 4 m/s 745 mmHg 83%
    20:00 +4°C° 0 mm 4 m/s 746 mmHg 84%
    21:00 +4°C° 0 mm 4 m/s 746 mmHg 85%
    22:00 +3°C° 0 mm 4 m/s 746 mmHg 86%
    23:00 +3°C° 0 mm 3 m/s 747 mmHg 87%
    Mostrar mais